Date String (YYYY-MM-DD hh:mm:ss) UTC,Instrument flags,Ambient pressure (hPa),Sample flow (lpm),Bypass flow (lpm),Sample temperature (°C),Ambient temperature (°C),ASC tube jacket temperature (°C),LED temperature (°C),Box temperature (°C),Sample RH (%),Span deviation,Mass concentration (μg/m³),Mass concentration (μg/m³),Mass concentration (μg/m³)
DateTimeUTC,F1_M11,P_M11,Q1_M11,Q2_M11,T1_M11,T2_M11,T3_M11,T4_M11,T5_M11,U1_M11,ZSPAN_M11,X0_M11,X2_M11,X1_M11
2021-11-26 12:00:00,,0829.5,5.01,0.00,26.2,25.3,00.0,35.2,28.0,09.2,0000.0,0001.24,0000.63,0000.41
2021-11-26 12:01:00,,0829.5,4.98,0.00,26.2,25.3,00.0,35.2,28.0,09.2,0000.0,0001.12,0000.61,0000.41
2021-11-26 12:02:00,,0829.5,5.01,0.00,26.2,25.3,00.0,35.2,27.9,09.2,0000.0,0001.08,0000.59,0000.40
2021-11-26 12:03:00,,0829.5,5.00,0.00,26.2,25.3,00.0,35.2,28.0,09.2,0000.0,0001.04,0000.57,0000.41
2021-11-26 12:04:00,,0829.5,5.00,0.00,26.2,25.3,00.0,35.2,27.9,09.2,0000.0,0000.99,0000.56,0000.42
2021-11-26 12:05:00,,0829.5,5.00,0.00,26.2,25.3,00.0,35.2,27.9,09.1,0000.0,0001.00,0000.56,0000.41
2021-11-26 12:06:00,,0829.5,5.00,0.00,26.2,25.3,00.0,35.2,27.9,09.1,0000.0,0001.01,0000.57,0000.42
2021-11-26 12:07:00,,0829.5,5.00,0.00,26.2,25.3,00.0,35.2,27.9,09.1,0000.0,0000.93,0000.57,0000.42
2021-11-26 12:08:00,,0829.5,5.00,0.00,26.2,25.3,00.0,35.2,27.9,09.2,0000.0,0001.04,0000.60,0000.43
2021-11-26 12:09:00,,0829.5,5.01,0.00,26.2,25.3,00.0,35.2,27.9,09.2,0000.0,0001.16,0000.62,0000.43
2021-11-26 12:10:00,,0829.5,4.99,0.00,26.2,25.3,00.0,35.2,27.9,09.2,0000.0,0001.20,0000.62,0000.43
2021-11-26 12:11:00,,0829.5,5.01,0.00,26.2,25.3,00.0,35.2,27.9,09.2,0000.0,0001.48,0000.64,0000.42
2021-11-26 12:12:00,,0829.5,5.00,0.00,26.2,25.3,00.0,35.2,27.9,09.2,0000.0,0001.70,0000.68,0000.42
2021-11-26 12:13:00,,0829.5,5.00,0.00,26.1,25.3,00.0,35.2,27.9,09.2,0000.0,0001.71,0000.70,0000.42
2021-11-26 12:14:00,,0829.5,5.01,0.00,26.1,25.3,00.0,35.2,27.9,09.2,0000.0,0001.67,0000.68,0000.41
2021-11-26 12:15:00,,0829.5,4.99,0.00,26.2,25.3,00.0,35.1,27.9,09.2,0000.0,0001.72,0000.69,0000.41
2021-11-26 12:16:00,,0829.5,5.01,0.00,26.2,25.3,00.0,35.1,27.9,09.2,0000.0,0001.76,0000.72,0000.41
2021-11-26 12:17:00,,0829.5,4.98,0.00,26.2,25.3,00.0,35.1,27.9,09.2,0000.0,0001.74,0000.73,0000.41
2021-11-26 12:18:00,,0829.5,5.00,0.00,26.2,25.3,00.0,35.1,27.9,09.2,0000.0,0001.68,0000.71,0000.40
2021-11-26 12:19:00,,0829.5,5.02,0.00,26.2,25.3,00.0,35.2,27.9,09.2,0000.0,0001.59,0000.68,0000.40
2021-11-26 12:20:00,,0829.5,5.00,0.00,26.1,25.3,00.0,35.1,27.9,09.2,0000.0,0001.59,0000.69,0000.40
2021-11-26 12:21:00,,0829.5,5.00,0.00,26.1,25.3,00.0,35.1,27.9,09.3,0000.0,0001.53,0000.67,0000.41
2021-11-26 12:22:00,,0829.5,5.00,0.00,26.1,25.3,00.0,35.1,27.9,09.3,0000.0,0001.56,0000.65,0000.41
2021-11-26 12:23:00,,0829.5,5.00,0.00,26.1,25.2,00.0,35.1,27.9,09.3,0000.0,0001.38,0000.62,0000.42
2021-11-26 12:24:00,,0829.5,5.00,0.00,26.1,25.2,00.0,35.1,27.9,09.3,0000.0,0001.30,0000.58,0000.42
2021-11-26 12:25:00,,0829.5,4.99,0.00,26.1,25.2,00.0,35.1,27.9,09.3,0000.0,0002.05,0000.58,0000.42
2021-11-26 12:26:00,,0829.5,5.01,0.00,26.1,25.2,00.0,35.1,27.9,09.3,0000.0,0002.42,0000.57,0000.41
2021-11-26 12:27:00,,0829.5,5.00,0.00,26.1,25.3,00.0,35.1,27.9,09.3,0000.0,0002.37,0000.54,0000.40
2021-11-26 12:28:00,,0829.5,5.01,0.00,26.1,25.2,00.0,35.1,27.9,09.3,0000.0,0002.31,0000.52,0000.41
2021-11-26 12:29:00,,0829.4,4.98,0.00,26.1,25.2,00.0,35.1,27.9,09.3,0000.0,0002.39,0000.54,0000.42
2021-11-26 12:30:00,,0829.4,5.01,0.00,26.1,25.2,00.0,35.1,27.9,09.3,0000.0,0002.51,0000.55,0000.42
2021-11-26 12:31:00,,0829.4,4.98,0.00,26.1,25.2,00.0,35.1,27.9,09.4,0000.0,0002.42,0000.52,0000.41
2021-11-26 12:32:00,,0829.5,5.01,0.00,26.1,25.2,00.0,35.1,27.9,09.4,0000.0,0002.28,0000.50,0000.41
2021-11-26 12:33:00,,0829.5,4.99,0.00,26.1,25.2,00.0,35.1,27.9,09.3,0000.0,0002.16,0000.49,0000.40
2021-11-26 12:34:00,,0829.5,5.02,0.00,26.1,25.2,00.0,35.1,27.8,09.3,0000.0,0002.00,0000.50,0000.39
2021-11-26 12:35:00,,0829.5,4.98,0.00,26.1,25.2,00.0,35.1,27.9,09.3,0000.0,0002.07,0000.51,0000.38
2021-11-26 12:36:00,,0829.5,5.01,0.00,26.1,25.2,00.0,35.1,27.9,09.4,0000.0,0001.60,0000.54,0000.39
2021-11-26 12:37:00,,0829.5,5.00,0.00,26.1,25.2,00.0,35.1,27.8,09.4,0000.0,0001.04,0000.54,0000.39
2021-11-26 12:38:00,,0829.5,5.02,0.00,26.1,25.2,00.0,35.1,27.8,09.4,0000.0,0001.09,0000.55,0000.39
2021-11-26 12:39:00,,0829.4,4.99,0.00,26.1,25.2,00.0,35.1,27.8,09.4,0000.0,0001.12,0000.55,0000.38
2021-11-26 12:40:00,,0829.4,5.00,0.00,26.1,25.2,00.0,35.1,27.9,09.4,0000.0,0001.08,0000.52,0000.37
2021-11-26 12:41:00,,0829.4,5.01,0.00,26.1,25.2,00.0,35.1,27.9,09.4,0000.0,0001.03,0000.54,0000.36
2021-11-26 12:42:00,,0829.4,4.99,0.00,26.1,25.2,00.0,35.1,27.8,09.4,0000.0,0001.08,0000.55,0000.36
2021-11-26 12:43:00,,0829.4,5.02,0.00,26.1,25.2,00.0,35.1,27.8,09.4,0000.0,0001.16,0000.56,0000.35
2021-11-26 12:44:00,,0829.4,4.99,0.00,26.1,25.2,00.0,35.1,27.8,09.4,0000.0,0001.17,0000.57,0000.36
2021-11-26 12:45:00,,0829.5,5.00,0.00,26.1,25.2,00.0,35.1,27.8,09.4,0000.0,0001.16,0000.57,0000.36
2021-11-26 12:46:00,,0829.5,4.99,0.00,26.0,25.2,00.0,35.1,27.8,09.4,0000.0,0001.11,0000.56,0000.37
2021-11-26 12:47:00,,0829.5,5.01,0.00,26.0,25.2,00.0,35.1,27.8,09.4,0000.0,0000.95,0000.53,0000.36
2021-11-26 12:48:00,,0829.5,5.01,0.00,26.0,25.2,00.0,35.1,27.8,09.4,0000.0,0000.99,0000.53,0000.36
2021-11-26 12:49:00,,0829.5,5.00,0.00,26.0,25.2,00.0,35.0,27.8,09.4,0000.0,0001.06,0000.55,0000.35
2021-11-26 12:50:00,,0829.5,5.01,0.00,26.0,25.2,00.0,35.0,27.8,09.4,0000.0,0001.05,0000.56,0000.36
2021-11-26 12:51:00,,0829.5,4.99,0.00,26.0,25.2,00.0,35.0,27.8,09.4,0000.0,0001.06,0000.57,0000.36
2021-11-26 12:52:00,,0829.5,5.02,0.00,26.0,25.2,00.0,35.0,27.8,09.4,0000.0,0001.04,0000.58,0000.36
2021-11-26 12:53:00,,0829.5,4.99,0.00,26.0,25.2,00.0,35.0,27.7,09.4,0000.0,0001.02,0000.59,0000.36
2021-11-26 12:54:00,,0829.5,4.99,0.00,26.0,25.2,00.0,35.0,27.8,09.5,0000.0,0000.96,0000.58,0000.36
2021-11-26 12:55:00,,0829.4,5.01,0.00,26.0,25.2,00.0,35.0,27.8,09.5,0000.0,0000.94,0000.58,0000.36
2021-11-26 12:56:00,,0829.4,4.99,0.00,26.0,25.2,00.0,35.0,27.8,09.5,0000.0,0000.89,0000.56,0000.36
2021-11-26 12:57:00,,0829.3,5.03,0.00,26.0,25.1,00.0,35.0,27.8,09.5,0000.0,0000.88,0000.55,0000.35
2021-11-26 12:58:00,,0829.3,5.00,0.00,26.0,25.1,00.0,35.0,27.8,09.5,0000.0,0000.88,0000.55,0000.35
2021-11-26 12:59:00,,0829.5,5.01,0.00,26.0,25.2,00.0,35.0,27.8,09.5,0000.0,0000.89,0000.55,0000.35
